When you browse on this site, cookies collect data to enhance your experience and personalize the content and advertising you see.
Visit our Privacy Policy to learn more. By continuing to use the site, you agree to this use of cookies and data.
  • In Lithuania
  • List of Countries
  • For 7 days
  • Water Temperature
  • Satellite Maps
  • Weather Map
  • Weather Widgets
  • user-avatar
    Login

    Hourly Weather Maturín

    Today, 21 November, Wednesday

    Time Temperature Precipitation Wind Pressure Humidity
    00:00 +25°C° 0.1 mm 1 mps 756 mmHg 95%
    01:00 +25°C° 0.1 mm 1 mps 756 mmHg 96%
    02:00 +25°C° 0.1 mm 1 mps 756 mmHg 97%
    03:00 +25°C° 0.1 mm 1 mps 756 mmHg 97%
    04:00 +25°C° 0.1 mm 1 mps 755 mmHg 97%
    05:00 +25°C° 0.1 mm 1 mps 755 mmHg 97%
    06:00 +26°C° 0.1 mm 1 mps 756 mmHg 94%
    07:00 +26°C° 0.1 mm 2 mps 756 mmHg 91%
    08:00 +27°C° 0.1 mm 2 mps 757 mmHg 88%
    09:00 +29°C° 0.1 mm 2 mps 757 mmHg 81%
    10:00 +30°C° 0.1 mm 2 mps 757 mmHg 73%
    11:00 +33°C° 0.1 mm 3 mps 757 mmHg 66%
    12:00 +33°C° 0.1 mm 3 mps 756 mmHg 63%
    13:00 +34°C° 0.1 mm 3 mps 755 mmHg 60%
    14:00 +34°C° 0.1 mm 3 mps 754 mmHg 57%
    15:00 +33°C° 0 mm 3 mps 754 mmHg 60%
    16:00 +31°C° 0 mm 3 mps 754 mmHg 63%
    17:00 +31°C° 0 mm 2 mps 753 mmHg 66%
    18:00 +29°C° 0 mm 2 mps 754 mmHg 71%
    19:00 +27°C° 0 mm 2 mps 754 mmHg 77%
    20:00 +26°C° 0 mm 2 mps 755 mmHg 82%
    21:00 +26°C° 0 mm 2 mps 755 mmHg 85%
    22:00 +25°C° 0 mm 1 mps 755 mmHg 88%
    23:00 +25°C° 0 mm 1 mps 755 mmHg 90%

    Tomorrow, 22 November, Thursday

    Time Temperature Precipitation Wind Pressure Humidity
    00:00 +24°C° 0 mm 1 mps 755 mmHg 92%
    01:00 +24°C° 0 mm 1 mps 755 mmHg 94%
    02:00 +24°C° 0 mm 1 mps 755 mmHg 95%
    03:00 +24°C° 0 mm 1 mps 755 mmHg 95%
    04:00 +24°C° 0 mm 1 mps 755 mmHg 96%
    05:00 +24°C° 0 mm 1 mps 755 mmHg 96%
    06:00 +25°C° 0 mm 1 mps 755 mmHg 92%
    07:00 +26°C° 0 mm 1 mps 755 mmHg 88%
    08:00 +28°C° 0 mm 1 mps 756 mmHg 84%
    09:00 +29°C° 0.1 mm 2 mps 756 mmHg 77%
    10:00 +30°C° 0.1 mm 2 mps 756 mmHg 70%
    11:00 +32°C° 0.1 mm 2 mps 756 mmHg 63%
    12:00 +32°C° 0.2 mm 2 mps 755 mmHg 62%
    13:00 +34°C° 0.2 mm 3 mps 754 mmHg 60%
    14:00 +34°C° 0.2 mm 3 mps 753 mmHg 58%
    15:00 +32°C° 0.4 mm 2 mps 753 mmHg 63%
    16:00 +31°C° 0.4 mm 2 mps 753 mmHg 67%
    17:00 +30°C° 0.4 mm 2 mps 752 mmHg 72%
    18:00 +29°C° 0.1 mm 2 mps 753 mmHg 77%
    19:00 +28°C° 0.1 mm 2 mps 754 mmHg 83%
    20:00 +26°C° 0.1 mm 2 mps 754 mmHg 88%
    21:00 +26°C° 0 mm 2 mps 755 mmHg 90%
    22:00 +26°C° 0 mm 1 mps 755 mmHg 92%
    23:00 +25°C° 0 mm 1 mps 755 mmHg 94%

    Day after tomorrow, 23 November, Friday

    Time Temperature Precipitation Wind Pressure Humidity
    00:00 +25°C° 0 mm 1 mps 755 mmHg 95%
    01:00 +25°C° 0 mm 1 mps 754 mmHg 96%
    02:00 +25°C° 0 mm 1 mps 754 mmHg 97%
    03:00 +25°C° 0.1 mm 1 mps 754 mmHg 97%
    04:00 +25°C° 0.1 mm 1 mps 754 mmHg 96%
    05:00 +24°C° 0.1 mm 1 mps 754 mmHg 96%
    06:00 +25°C° 0 mm 1 mps 754 mmHg 93%
    07:00 +26°C° 0 mm 1 mps 755 mmHg 89%
    08:00 +27°C° 0 mm 2 mps 755 mmHg 85%
    09:00 +29°C° 0.2 mm 2 mps 755 mmHg 79%
    10:00 +30°C° 0.2 mm 2 mps 755 mmHg 74%
    11:00 +31°C° 0.2 mm 2 mps 755 mmHg 68%
    12:00 +31°C° 0.4 mm 2 mps 754 mmHg 67%
    13:00 +32°C° 0.4 mm 2 mps 753 mmHg 66%
    14:00 +32°C° 0.4 mm 2 mps 752 mmHg 65%
    15:00 +31°C° 0.4 mm 2 mps 752 mmHg 68%
    16:00 +30°C° 0.4 mm 2 mps 752 mmHg 72%
    17:00 +30°C° 0.4 mm 2 mps 752 mmHg 76%
    18:00 +28°C° 0 mm 2 mps 752 mmHg 81%
    19:00 +27°C° 0 mm 2 mps 753 mmHg 86%
    20:00 +26°C° 0 mm 1 mps 753 mmHg 91%
    21:00 +26°C° 0 mm 1 mps 754 mmHg 92%
    22:00 +26°C° 0 mm 1 mps 754 mmHg 94%
    23:00 +25°C° 0 mm 1 mps 755 mmHg 95%

    24 November, Saturday

    Time Temperature Precipitation Wind Pressure Humidity
    00:00 +25°C° 0 mm 1 mps 754 mmHg 96%
    01:00 +25°C° 0 mm 1 mps 754 mmHg 97%
    02:00 +25°C° 0 mm 1 mps 754 mmHg 98%
    03:00 +25°C° 0 mm 1 mps 754 mmHg 98%
    04:00 +25°C° 0 mm 1 mps 754 mmHg 98%
    05:00 +25°C° 0 mm 1 mps 754 mmHg 98%
    06:00 +26°C° 0.1 mm 1 mps 754 mmHg 94%
    07:00 +27°C° 0.1 mm 1 mps 755 mmHg 91%
    08:00 +28°C° 0.1 mm 1 mps 756 mmHg 87%
    09:00 +29°C° 0.5 mm 1 mps 756 mmHg 82%
    10:00 +30°C° 0.5 mm 2 mps 756 mmHg 76%
    11:00 +31°C° 0.5 mm 2 mps 756 mmHg 70%
    12:00 +32°C° 0.2 mm 2 mps 755 mmHg 68%
    13:00 +32°C° 0.2 mm 2 mps 754 mmHg 66%
    14:00 +34°C° 0.2 mm 2 mps 753 mmHg 63%
    15:00 +32°C° 0 mm 2 mps 753 mmHg 67%
    16:00 +31°C° 0 mm 2 mps 752 mmHg 70%
    17:00 +30°C° 0 mm 2 mps 752 mmHg 74%
    18:00 +29°C° 0 mm 2 mps 753 mmHg 79%
    19:00 +28°C° 0 mm 2 mps 753 mmHg 84%
    20:00 +27°C° 0 mm 1 mps 754 mmHg 90%
    21:00 +26°C° 0 mm 1 mps 754 mmHg 91%
    22:00 +26°C° 0 mm 1 mps 754 mmHg 91%
    23:00 +26°C° 0 mm 1 mps 755 mmHg 92%

    25 November, Sunday

    Time Temperature Precipitation Wind Pressure Humidity
    00:00 +26°C° 0.1 mm 1 mps 754 mmHg 94%
    01:00 +25°C° 0.1 mm 1 mps 754 mmHg 96%
    02:00 +25°C° 0.1 mm 1 mps 754 mmHg 97%
    03:00 +25°C° 0.1 mm 1 mps 754 mmHg 97%
    04:00 +25°C° 0.1 mm 1 mps 754 mmHg 98%
    05:00 +25°C° 0.1 mm 1 mps 754 mmHg 98%
    06:00 +26°C° 0 mm 1 mps 754 mmHg 94%
    07:00 +27°C° 0 mm 1 mps 755 mmHg 90%
    08:00 +28°C° 0 mm 2 mps 755 mmHg 86%
    09:00 +29°C° 0.4 mm 2 mps 755 mmHg 82%
    10:00 +30°C° 0.4 mm 2 mps 755 mmHg 78%
    11:00 +31°C° 0.4 mm 2 mps 755 mmHg 74%
    12:00 +31°C° 1.1 mm 3 mps 755 mmHg 76%
    13:00 +31°C° 1.1 mm 3 mps 754 mmHg 78%
    14:00 +31°C° 1.1 mm 3 mps 753 mmHg 79%
    15:00 +30°C° 0.4 mm 3 mps 753 mmHg 81%
    16:00 +29°C° 0.4 mm 2 mps 753 mmHg 83%
    17:00 +29°C° 0.4 mm 2 mps 753 mmHg 85%
    18:00 +28°C° 0.3 mm 2 mps 753 mmHg 89%
    19:00 +27°C° 0.3 mm 2 mps 754 mmHg 92%
    20:00 +26°C° 0.3 mm 2 mps 754 mmHg 96%
    21:00 +26°C° 0.1 mm 1 mps 754 mmHg 96%
    22:00 +26°C° 0.1 mm 1 mps 755 mmHg 97%
    23:00 +25°C° 0.1 mm 1 mps 755 mmHg 97%

    26 November, Monday

    Time Temperature Precipitation Wind Pressure Humidity
    00:00 +25°C° 0.6 mm 1 mps 754 mmHg 97%
    01:00 +25°C° 0.6 mm 1 mps 754 mmHg 97%
    02:00 +25°C° 0.6 mm 1 mps 754 mmHg 98%
    03:00 +25°C° 0.3 mm 1 mps 754 mmHg 98%
    04:00 +25°C° 0.3 mm 1 mps 754 mmHg 98%
    05:00 +25°C° 0.3 mm 1 mps 754 mmHg 98%
    06:00 +26°C° 0 mm 1 mps 754 mmHg 95%
    07:00 +27°C° 0 mm 1 mps 755 mmHg 92%
    08:00 +27°C° 0 mm 2 mps 755 mmHg 89%
    09:00 +29°C° 0.3 mm 2 mps 755 mmHg 83%
    10:00 +30°C° 0.3 mm 2 mps 755 mmHg 78%
    11:00 +31°C° 0.3 mm 2 mps 755 mmHg 72%
    12:00 +32°C° 0.2 mm 2 mps 754 mmHg 68%
    13:00 +33°C° 0.2 mm 3 mps 753 mmHg 64%
    14:00 +34°C° 0.2 mm 3 mps 753 mmHg 60%
    15:00 +32°C° 0 mm 2 mps 752 mmHg 62%
    16:00 +32°C° 0 mm 2 mps 752 mmHg 64%
    17:00 +31°C° 0 mm 2 mps 752 mmHg 67%
    18:00 +29°C° 0 mm 2 mps 753 mmHg 72%
    19:00 +28°C° 0 mm 2 mps 753 mmHg 78%
    20:00 +27°C° 0 mm 2 mps 754 mmHg 84%
    21:00 +26°C° 0 mm 2 mps 754 mmHg 87%
    22:00 +26°C° 0 mm 2 mps 754 mmHg 90%
    23:00 +25°C° 0 mm 1 mps 754 mmHg 93%
    Show more